HAL9000 KLAX-KPDX

Flight info

Callsign HAL9000
Flight time 1h 47m
Altitude 38000
Route LADYJ4 CSTRO SHIMR LMT MOXEE TMBRS4
Aircraft L101/H-SDFGHIRWXY/S

Departure

Time 2026-05-04 23:45
Airport Los Angeles International Airport (KLAX)

Arrival

Time 2026-05-05 01:32
Airport Portland International Airport (KPDX)
Time Latitude Longitude Altitude Speed Heading
2026-05-04 23:04 33.94475 -118.41001 99 ft 0 kts 261°
2026-05-04 23:34 33.94476 -118.40986 98 ft 3 kts 261°
2026-05-04 23:35 33.94480 -118.40958 97 ft 3 kts 262°
2026-05-04 23:35 33.94483 -118.40933 98 ft 2 kts 262°
2026-05-04 23:35 33.94489 -118.40906 98 ft 3 kts 235°
2026-05-04 23:35 33.94506 -118.40888 99 ft 4 kts 196°
2026-05-04 23:36 33.94532 -118.40885 99 ft 4 kts 174°
2026-05-04 23:36 33.94556 -118.40888 97 ft 4 kts 173°
2026-05-04 23:36 33.94583 -118.40892 97 ft 4 kts 173°
2026-05-04 23:36 33.94607 -118.40896 97 ft 4 kts 173°
2026-05-04 23:37 33.94633 -118.40900 99 ft 4 kts 173°
2026-05-04 23:37 33.94660 -118.40904 99 ft 4 kts 173°
2026-05-04 23:37 33.94685 -118.40907 97 ft 4 kts 173°
2026-05-04 23:37 33.94707 -118.40911 99 ft 4 kts 164°
2026-05-04 23:38 33.94729 -118.40923 97 ft 4 kts 136°
2026-05-04 23:38 33.94742 -118.40946 98 ft 4 kts 98°
2026-05-04 23:38 33.94742 -118.40973 99 ft 4 kts 83°
2026-05-04 23:38 33.94739 -118.40999 98 ft 1 kts 83°
2026-05-04 23:42 33.94740 -118.40990 99 ft 3 kts 83°
2026-05-04 23:42 33.94745 -118.40950 98 ft 7 kts 80°
2026-05-04 23:42 33.94780 -118.40895 100 ft 10 kts 28°
2026-05-04 23:42 33.94832 -118.40837 103 ft 13 kts 68°
2026-05-04 23:43 33.94850 -118.40722 100 ft 17 kts 82°
2026-05-04 23:43 33.94866 -118.40565 101 ft 21 kts 83°
2026-05-04 23:43 33.94886 -118.40373 99 ft 25 kts 83°
2026-05-04 23:43 33.94902 -118.40224 101 ft 16 kts 83°
2026-05-04 23:44 33.94917 -118.40073 101 ft 19 kts 83°
2026-05-04 23:44 33.94927 -118.39988 98 ft 10 kts 78°
2026-05-04 23:44 33.94980 -118.39923 98 ft 13 kts 13°
2026-05-04 23:44 33.95036 -118.39982 99 ft 13 kts 274°
2026-05-04 23:45 33.95006 -118.40292 103 ft 81 kts 262°
2026-05-04 23:45 33.94926 -118.41161 150 ft 155 kts 262°
2026-05-04 23:45 33.94723 -118.42634 840 ft 188 kts 257°
2026-05-04 23:45 33.94470 -118.44132 1894 ft 160 kts 257°
2026-05-04 23:46 33.94249 -118.45434 2659 ft 159 kts 256°
2026-05-04 23:46 33.94128 -118.46769 3441 ft 161 kts 265°
2026-05-04 23:46 33.94165 -118.48030 4202 ft 162 kts 271°
2026-05-04 23:46 33.94226 -118.49382 5021 ft 162 kts 271°
2026-05-04 23:47 33.94244 -118.50778 5675 ft 176 kts 269°
2026-05-04 23:47 33.94179 -118.52348 6135 ft 193 kts 265°
2026-05-04 23:47 33.94042 -118.53975 6661 ft 197 kts 263°
2026-05-04 23:47 33.93892 -118.55618 7199 ft 199 kts 263°
2026-05-04 23:48 33.93760 -118.57048 7659 ft 200 kts 263°
2026-05-04 23:48 33.93615 -118.58720 8169 ft 202 kts 265°
2026-05-04 23:48 33.93757 -118.60398 8620 ft 207 kts 289°
2026-05-04 23:48 33.94560 -118.61863 9102 ft 213 kts 309°
2026-05-04 23:49 33.95597 -118.63138 9664 ft 216 kts 309°
2026-05-04 23:49 33.96626 -118.64479 10251 ft 224 kts 308°
2026-05-04 23:49 33.97870 -118.65842 10955 ft 262 kts 325°
2026-05-04 23:49 33.99663 -118.66626 11796 ft 288 kts 347°
2026-05-04 23:50 34.01720 -118.66820 12835 ft 302 kts 355°
2026-05-04 23:50 34.03723 -118.66869 13907 ft 309 kts 355°
2026-05-04 23:50 34.05902 -118.66890 14989 ft 315 kts 358°
2026-05-04 23:50 34.07930 -118.66659 15819 ft 272 kts
2026-05-04 23:51 34.09677 -118.66281 16348 ft 245 kts
2026-05-04 23:51 34.11387 -118.65959 17223 ft 254 kts
2026-05-04 23:51 34.13168 -118.65687 18253 ft 261 kts
2026-05-04 23:51 34.14991 -118.65385 19172 ft 267 kts
2026-05-04 23:52 34.16841 -118.65018 20124 ft 272 kts
2026-05-04 23:52 34.18719 -118.64595 21081 ft 276 kts
2026-05-04 23:52 34.20625 -118.64145 22013 ft 282 kts
2026-05-04 23:52 34.22556 -118.63797 22961 ft 277 kts 349°
2026-05-04 23:53 34.24445 -118.63918 23854 ft 269 kts 337°
2026-05-04 23:53 34.26287 -118.64289 24640 ft 270 kts 336°
2026-05-04 23:53 34.28206 -118.64636 25203 ft 290 kts 338°
2026-05-04 23:53 34.30300 -118.64971 25424 ft 313 kts 339°
2026-05-04 23:54 34.32471 -118.65317 25562 ft 318 kts 339°
2026-05-04 23:54 34.34671 -118.65708 25683 ft 319 kts 338°
2026-05-04 23:54 34.36858 -118.66149 25798 ft 319 kts 336°
2026-05-04 23:54 34.39023 -118.66618 25948 ft 320 kts 335°
2026-05-04 23:55 34.41203 -118.67121 26079 ft 319 kts 336°
2026-05-04 23:55 34.43394 -118.67582 26199 ft 323 kts 337°
2026-05-04 23:55 34.47871 -118.68482 26449 ft 351 kts 338°
2026-05-04 23:56 34.50323 -118.68959 26595 ft 366 kts 339°
2026-05-04 23:56 34.52904 -118.69466 26728 ft 387 kts 339°
2026-05-04 23:56 34.55628 -118.70007 26885 ft 406 kts 340°
2026-05-04 23:56 34.58489 -118.70570 27037 ft 425 kts 340°
2026-05-04 23:57 34.61474 -118.71149 27193 ft 443 kts 341°
2026-05-04 23:57 34.64567 -118.71744 27338 ft 459 kts 342°
2026-05-04 23:57 34.67767 -118.72369 27475 ft 472 kts 340°
2026-05-04 23:57 34.70923 -118.73439 27586 ft 469 kts 327°
2026-05-04 23:58 34.73810 -118.75258 27719 ft 470 kts 320°
2026-05-04 23:58 34.76687 -118.77261 27848 ft 483 kts 322°
2026-05-04 23:58 34.79724 -118.79154 27992 ft 497 kts 324°
2026-05-04 23:58 34.82868 -118.81001 28147 ft 506 kts 324°
2026-05-04 23:59 34.86024 -118.82938 28400 ft 510 kts 323°
2026-05-04 23:59 34.89150 -118.85000 28798 ft 510 kts 321°
2026-05-04 23:59 34.92237 -118.87118 29280 ft 510 kts 321°
2026-05-04 23:59 34.95325 -118.89245 29977 ft 507 kts 320°
2026-05-05 00:00 34.98387 -118.91329 30654 ft 502 kts 321°
2026-05-05 00:00 34.99421 -118.92029 30898 ft 500 kts 321°
2026-05-05 00:00 35.04421 -118.95430 32093 ft 491 kts 321°
2026-05-05 00:00 35.07381 -118.97468 32764 ft 487 kts 320°
2026-05-05 00:01 35.10324 -118.99506 33334 ft 486 kts 320°
2026-05-05 00:01 35.13263 -119.01546 33824 ft 486 kts 321°
2026-05-05 00:01 35.16214 -119.03596 34181 ft 489 kts 321°
2026-05-05 00:01 35.19181 -119.05656 34509 ft 492 kts 321°
2026-05-05 00:02 35.22164 -119.07726 34804 ft 495 kts 321°
2026-05-05 00:02 35.25168 -119.09809 35141 ft 497 kts 321°
2026-05-05 00:02 35.28180 -119.11897 35524 ft 497 kts 321°
2026-05-05 00:02 35.31189 -119.13983 35964 ft 497 kts 322°
2026-05-05 00:03 35.34196 -119.16070 36431 ft 496 kts 322°
2026-05-05 00:03 35.37184 -119.18146 36922 ft 494 kts 322°
2026-05-05 00:03 35.40166 -119.20221 37431 ft 492 kts 322°
2026-05-05 00:03 35.43144 -119.22306 37717 ft 495 kts 323°
2026-05-05 00:04 35.46288 -119.24166 37903 ft 512 kts 334°
2026-05-05 00:04 35.49783 -119.25350 38006 ft 528 kts 341°
2026-05-05 00:04 35.53401 -119.26221 38016 ft 532 kts 342°
2026-05-05 00:05 35.60616 -119.28184 38022 ft 530 kts 339°
2026-05-05 00:05 35.67520 -119.30309 38011 ft 530 kts 340°
2026-05-05 00:06 35.73481 -119.32096 38011 ft 530 kts 340°
2026-05-05 00:06 35.80641 -119.34235 38014 ft 530 kts 340°
2026-05-05 00:07 35.87805 -119.36390 38015 ft 529 kts 340°
2026-05-05 00:07 35.94960 -119.38544 38022 ft 529 kts 340°
2026-05-05 00:08 36.02118 -119.40703 38012 ft 529 kts 340°
2026-05-05 00:08 36.09271 -119.42865 38021 ft 529 kts 340°
2026-05-05 00:09 36.16430 -119.45032 38032 ft 529 kts 340°
2026-05-05 00:09 36.23531 -119.47186 38032 ft 528 kts 340°
2026-05-05 00:10 36.30712 -119.49368 38029 ft 528 kts 340°
2026-05-05 00:10 36.37810 -119.51530 38027 ft 528 kts 340°
2026-05-05 00:11 36.44932 -119.53704 38033 ft 526 kts 341°
2026-05-05 00:11 36.52029 -119.55863 38035 ft 525 kts 341°
2026-05-05 00:12 36.59123 -119.58041 38043 ft 524 kts 341°
2026-05-05 00:12 36.66192 -119.60212 38033 ft 523 kts 341°
2026-05-05 00:13 36.73258 -119.62383 38025 ft 523 kts 341°
2026-05-05 00:13 36.80326 -119.64561 38025 ft 523 kts 341°
2026-05-05 00:14 36.87401 -119.66744 38029 ft 523 kts 341°
2026-05-05 00:14 36.94468 -119.68928 38030 ft 523 kts 341°
2026-05-05 00:15 37.01508 -119.71109 38037 ft 520 kts 342°
2026-05-05 00:15 37.08547 -119.73291 38037 ft 520 kts 342°
2026-05-05 00:16 37.15574 -119.75476 38044 ft 520 kts 342°
2026-05-05 00:16 37.22579 -119.77657 38048 ft 518 kts 342°
2026-05-05 00:17 37.29569 -119.79838 38045 ft 518 kts 342°
2026-05-05 00:17 37.36558 -119.82024 38055 ft 517 kts 342°
2026-05-05 00:18 37.43505 -119.84195 38056 ft 513 kts 343°
2026-05-05 00:18 37.50425 -119.86370 38051 ft 512 kts 343°
2026-05-05 00:19 37.57346 -119.88551 38056 ft 510 kts 343°
2026-05-05 00:19 37.64234 -119.90721 38051 ft 510 kts 343°
2026-05-05 00:20 37.71112 -119.92892 38046 ft 510 kts 343°
2026-05-05 00:20 37.77984 -119.95065 38053 ft 507 kts 344°
2026-05-05 00:21 37.84823 -119.97233 38065 ft 507 kts 344°
2026-05-05 00:21 37.91613 -119.99389 38053 ft 507 kts 344°
2026-05-05 00:22 37.98442 -120.01563 38070 ft 505 kts 344°
2026-05-05 00:22 38.05303 -120.03749 38059 ft 505 kts 344°
2026-05-05 00:23 38.12075 -120.05912 38069 ft 505 kts 344°
2026-05-05 00:23 38.18873 -120.08087 38061 ft 504 kts 345°
2026-05-05 00:24 38.25626 -120.10427 38055 ft 502 kts 341°
2026-05-05 00:24 38.31880 -120.12964 38053 ft 500 kts 341°
2026-05-05 00:25 38.38661 -120.15665 38058 ft 500 kts 342°
2026-05-05 00:25 38.45189 -120.18230 38055 ft 500 kts 342°
2026-05-05 00:26 38.51735 -120.20814 38039 ft 498 kts 343°
2026-05-05 00:26 38.58352 -120.23424 38047 ft 498 kts 343°
2026-05-05 00:27 38.64971 -120.26043 38034 ft 498 kts 343°
2026-05-05 00:27 38.71592 -120.28668 38035 ft 498 kts 343°
2026-05-05 00:28 38.78207 -120.31296 38038 ft 498 kts 343°
2026-05-05 00:28 38.84833 -120.33933 38044 ft 498 kts 343°
2026-05-05 00:29 38.91417 -120.36559 38030 ft 495 kts 343°
2026-05-05 00:29 38.98004 -120.39191 38025 ft 495 kts 343°
2026-05-05 00:30 39.04574 -120.41814 38021 ft 493 kts 343°
2026-05-05 00:30 39.11127 -120.44443 38024 ft 493 kts 344°
2026-05-05 00:31 39.17672 -120.47072 38025 ft 493 kts 343°
2026-05-05 00:31 39.24223 -120.49711 38019 ft 492 kts 344°
2026-05-05 00:32 39.30761 -120.52347 38030 ft 493 kts 344°
2026-05-05 00:32 39.37063 -120.54893 38016 ft 493 kts 344°
2026-05-05 00:33 39.43577 -120.57532 37982 ft 492 kts 344°
2026-05-05 00:33 39.50124 -120.60186 37979 ft 492 kts 344°
2026-05-05 00:34 39.56668 -120.62846 37983 ft 492 kts 345°
2026-05-05 00:34 39.63189 -120.65500 37985 ft 492 kts 345°
2026-05-05 00:35 39.69720 -120.68168 37987 ft 492 kts 345°
2026-05-05 00:35 39.76244 -120.70838 37975 ft 490 kts 345°
2026-05-05 00:36 39.82748 -120.73501 37978 ft 490 kts 345°
2026-05-05 00:36 39.89261 -120.76176 37990 ft 490 kts 345°
2026-05-05 00:37 39.95750 -120.78848 37980 ft 488 kts 345°
2026-05-05 00:37 40.02226 -120.81520 37977 ft 488 kts 345°
2026-05-05 00:38 40.08700 -120.84190 37963 ft 486 kts 346°
2026-05-05 00:38 40.15134 -120.86854 37941 ft 485 kts 346°
2026-05-05 00:39 40.21562 -120.89525 37926 ft 484 kts 346°
2026-05-05 00:39 40.27971 -120.92186 37907 ft 482 kts 346°
2026-05-05 00:40 40.34320 -120.94829 37920 ft 481 kts 346°
2026-05-05 00:40 40.40751 -120.97510 37929 ft 483 kts 346°
2026-05-05 00:41 40.47152 -121.00189 37914 ft 483 kts 346°
2026-05-05 00:41 40.53551 -121.02867 37914 ft 483 kts 346°
2026-05-05 00:42 40.59908 -121.05535 37885 ft 483 kts 346°
2026-05-05 00:42 40.66312 -121.08225 37896 ft 483 kts 346°
2026-05-05 00:43 40.72598 -121.10875 37893 ft 483 kts 346°
2026-05-05 00:43 40.78952 -121.13559 37870 ft 483 kts 346°
2026-05-05 00:44 40.85348 -121.16265 37892 ft 483 kts 346°
2026-05-05 00:44 40.91738 -121.18972 37887 ft 483 kts 346°
2026-05-05 00:45 40.98121 -121.21685 37884 ft 481 kts 347°
2026-05-05 00:45 41.04491 -121.24397 37884 ft 481 kts 347°
2026-05-05 00:46 41.10897 -121.27132 37876 ft 479 kts 347°
2026-05-05 00:46 41.17186 -121.29823 37868 ft 478 kts 347°
2026-05-05 00:47 41.23515 -121.32529 37879 ft 478 kts 347°
2026-05-05 00:47 41.29831 -121.35240 37868 ft 475 kts 347°
2026-05-05 00:48 41.36126 -121.37946 37869 ft 476 kts 347°
2026-05-05 00:48 41.42420 -121.40657 37873 ft 476 kts 347°
2026-05-05 00:49 41.48686 -121.43367 37859 ft 471 kts 347°
2026-05-05 00:49 41.53913 -121.45627 37842 ft 471 kts 347°
2026-05-05 00:50 41.60105 -121.48308 37839 ft 471 kts 347°
2026-05-05 00:50 41.66335 -121.51017 37833 ft 471 kts 348°
2026-05-05 00:51 41.72563 -121.53723 37821 ft 471 kts 348°
2026-05-05 00:51 41.78797 -121.56433 37817 ft 471 kts 348°
2026-05-05 00:52 41.85004 -121.59158 37824 ft 469 kts 348°
2026-05-05 00:52 41.91213 -121.61873 37841 ft 469 kts 348°
2026-05-05 00:53 41.97423 -121.64596 37836 ft 470 kts 349°
2026-05-05 00:53 42.03638 -121.67326 37860 ft 470 kts 349°
2026-05-05 00:54 42.09864 -121.70069 37869 ft 470 kts 349°
2026-05-05 00:54 42.16075 -121.72870 37870 ft 472 kts 347°
2026-05-05 00:55 42.22232 -121.76026 37800 ft 474 kts 346°
2026-05-05 00:55 42.28340 -121.79181 37799 ft 472 kts 346°
2026-05-05 00:56 42.34486 -121.82256 37794 ft 471 kts 347°
2026-05-05 00:56 42.40641 -121.85335 37816 ft 471 kts 347°
2026-05-05 00:57 42.46786 -121.88418 37822 ft 471 kts 347°
2026-05-05 00:57 42.52936 -121.91503 37818 ft 471 kts 347°
2026-05-05 00:58 42.59084 -121.94591 37825 ft 471 kts 347°
2026-05-05 00:58 42.65224 -121.97681 37839 ft 471 kts 347°
2026-05-05 00:59 42.71363 -122.00777 37839 ft 470 kts 347°
2026-05-05 00:59 42.77496 -122.03878 37857 ft 470 kts 347°
2026-05-05 01:00 42.83627 -122.06983 37854 ft 469 kts 347°
2026-05-05 01:00 42.89725 -122.10082 37850 ft 467 kts 347°
2026-05-05 01:01 42.95811 -122.13179 37856 ft 467 kts 347°
2026-05-05 01:01 43.01897 -122.16274 37861 ft 467 kts 347°
2026-05-05 01:02 43.07974 -122.19379 37857 ft 465 kts 347°
2026-05-05 01:02 43.14031 -122.22482 37874 ft 466 kts 347°
2026-05-05 01:03 43.20100 -122.25606 37882 ft 465 kts 347°
2026-05-05 01:03 43.23130 -122.27163 37748 ft 465 kts 347°
2026-05-05 01:03 43.26108 -122.28699 37483 ft 448 kts 347°
2026-05-05 01:03 43.28954 -122.30183 37198 ft 433 kts 347°
2026-05-05 01:04 43.31740 -122.31622 36946 ft 433 kts 347°
2026-05-05 01:04 43.37428 -122.34526 36432 ft 433 kts 346°
2026-05-05 01:04 43.40219 -122.35962 36198 ft 434 kts 346°
2026-05-05 01:05 43.43040 -122.37424 35935 ft 434 kts 346°
2026-05-05 01:05 43.45877 -122.38898 35678 ft 435 kts 346°
2026-05-05 01:05 43.48713 -122.40370 35335 ft 437 kts 346°
2026-05-05 01:05 43.51558 -122.41848 34969 ft 437 kts 345°
2026-05-05 01:06 43.54404 -122.43327 34610 ft 438 kts 345°
2026-05-05 01:06 43.57269 -122.44816 34268 ft 439 kts 345°
2026-05-05 01:06 43.60124 -122.46305 33898 ft 440 kts 345°
2026-05-05 01:06 43.62997 -122.47807 33500 ft 441 kts 345°
2026-05-05 01:07 43.65864 -122.49309 33104 ft 442 kts 345°
2026-05-05 01:07 43.68741 -122.50811 32707 ft 443 kts 345°
2026-05-05 01:07 43.71628 -122.52316 32330 ft 444 kts 344°
2026-05-05 01:07 43.74517 -122.53827 31950 ft 444 kts 344°
2026-05-05 01:08 43.77411 -122.55343 31565 ft 445 kts 344°
2026-05-05 01:08 43.80309 -122.56863 31192 ft 446 kts 343°
2026-05-05 01:08 43.83206 -122.58384 30827 ft 447 kts 343°
2026-05-05 01:08 43.86076 -122.59893 30469 ft 447 kts 343°
2026-05-05 01:09 43.88976 -122.61415 30123 ft 448 kts 343°
2026-05-05 01:09 43.91711 -122.62854 29756 ft 449 kts 343°
2026-05-05 01:09 43.94690 -122.64425 29341 ft 450 kts 343°
2026-05-05 01:09 43.97624 -122.65974 28930 ft 451 kts 343°
2026-05-05 01:10 44.00561 -122.67525 28525 ft 453 kts 343°
2026-05-05 01:10 44.03508 -122.69081 28129 ft 455 kts 343°
2026-05-05 01:10 44.06473 -122.70651 27717 ft 456 kts 342°
2026-05-05 01:10 44.09449 -122.72229 27212 ft 458 kts 342°
2026-05-05 01:11 44.12458 -122.73690 26695 ft 457 kts 349°
2026-05-05 01:11 44.15591 -122.74250 26163 ft 453 kts
2026-05-05 01:11 44.18743 -122.73993 25679 ft 454 kts
2026-05-05 01:11 44.21908 -122.73735 25198 ft 458 kts
2026-05-05 01:12 44.25102 -122.73697 24721 ft 457 kts
2026-05-05 01:12 44.28185 -122.73712 24222 ft 429 kts
2026-05-05 01:12 44.31091 -122.73618 23628 ft 411 kts
2026-05-05 01:12 44.33908 -122.73400 22940 ft 399 kts
2026-05-05 01:13 44.36625 -122.73138 22249 ft 383 kts
2026-05-05 01:13 44.39235 -122.72882 21569 ft 369 kts
2026-05-05 01:13 44.41755 -122.72646 20898 ft 357 kts
2026-05-05 01:13 44.44192 -122.72420 20260 ft 348 kts
2026-05-05 01:14 44.46609 -122.72189 19636 ft 348 kts
2026-05-05 01:14 44.49019 -122.71953 19027 ft 346 kts
2026-05-05 01:14 44.51414 -122.71715 18416 ft 344 kts
2026-05-05 01:14 44.53790 -122.71479 17755 ft 341 kts
2026-05-05 01:15 44.56153 -122.71245 17081 ft 339 kts
2026-05-05 01:15 44.58492 -122.71014 16423 ft 335 kts
2026-05-05 01:15 44.60811 -122.70782 15791 ft 332 kts
2026-05-05 01:15 44.63051 -122.70557 15196 ft 330 kts
2026-05-05 01:16 44.65330 -122.70329 14595 ft 327 kts
2026-05-05 01:16 44.67589 -122.70102 14018 ft 324 kts
2026-05-05 01:16 44.69800 -122.69880 13405 ft 320 kts
2026-05-05 01:16 44.72008 -122.69657 12805 ft 315 kts
2026-05-05 01:17 44.74180 -122.69439 12654 ft 313 kts
2026-05-05 01:17 44.76350 -122.69221 12443 ft 313 kts
2026-05-05 01:17 44.78519 -122.69005 12230 ft 311 kts
2026-05-05 01:17 44.80678 -122.68789 12071 ft 312 kts
2026-05-05 01:18 44.82847 -122.68570 11687 ft 311 kts
2026-05-05 01:18 44.84828 -122.68371 11360 ft 309 kts
2026-05-05 01:18 44.86968 -122.68156 11236 ft 309 kts
2026-05-05 01:18 44.89106 -122.67938 11091 ft 308 kts
2026-05-05 01:19 44.91238 -122.67721 11035 ft 307 kts
2026-05-05 01:19 44.93368 -122.67492 11029 ft 307 kts
2026-05-05 01:19 44.95448 -122.66808 11021 ft 307 kts 17°
2026-05-05 01:19 44.97450 -122.65767 10685 ft 302 kts 21°
2026-05-05 01:20 44.99224 -122.64692 10344 ft 288 kts 24°
2026-05-05 01:20 45.01008 -122.63549 9983 ft 276 kts 24°
2026-05-05 01:20 45.02717 -122.62430 9597 ft 266 kts 24°
2026-05-05 01:20 45.04363 -122.61339 9304 ft 259 kts 24°
2026-05-05 01:21 45.06007 -122.60236 9181 ft 263 kts 25°
2026-05-05 01:21 45.07660 -122.59121 8979 ft 265 kts 24°
2026-05-05 01:21 45.09311 -122.57999 8583 ft 263 kts 24°
2026-05-05 01:21 45.10956 -122.56872 8209 ft 264 kts 24°
2026-05-05 01:22 45.12609 -122.55729 7839 ft 262 kts 24°
2026-05-05 01:22 45.14246 -122.54585 7463 ft 261 kts 24°
2026-05-05 01:22 45.15867 -122.53444 7091 ft 260 kts 24°
2026-05-05 01:22 45.17477 -122.52301 6736 ft 258 kts 24°
2026-05-05 01:23 45.19074 -122.51158 6387 ft 256 kts 24°
2026-05-05 01:23 45.20655 -122.50011 6016 ft 255 kts 25°
2026-05-05 01:23 45.22214 -122.48876 5647 ft 254 kts 25°
2026-05-05 01:23 45.23801 -122.47711 5273 ft 253 kts 24°
2026-05-05 01:24 45.25339 -122.46571 4908 ft 252 kts 24°
2026-05-05 01:24 45.26895 -122.45413 4539 ft 252 kts 24°
2026-05-05 01:24 45.28464 -122.44249 4274 ft 249 kts 24°
2026-05-05 01:24 45.30010 -122.43160 4144 ft 252 kts 24°
2026-05-05 01:25 45.31531 -122.42052 4014 ft 237 kts 24°
2026-05-05 01:25 45.32944 -122.40989 3944 ft 221 kts 25°
2026-05-05 01:25 45.34283 -122.39974 3968 ft 219 kts 24°
2026-05-05 01:25 45.35643 -122.38958 3909 ft 218 kts 25°
2026-05-05 01:26 45.36998 -122.37934 3699 ft 222 kts 24°
2026-05-05 01:26 45.38295 -122.36965 3474 ft 222 kts 25°
2026-05-05 01:26 45.39690 -122.35944 3220 ft 223 kts 25°
2026-05-05 01:26 45.41080 -122.34940 3122 ft 226 kts 25°
2026-05-05 01:27 45.42507 -122.34021 2985 ft 224 kts 12°
2026-05-05 01:27 45.44028 -122.34069 2872 ft 219 kts 342°
2026-05-05 01:27 45.45410 -122.34942 2917 ft 218 kts 329°
2026-05-05 01:27 45.46723 -122.36046 2984 ft 219 kts 326°
2026-05-05 01:28 45.48008 -122.37195 2991 ft 214 kts 326°
2026-05-05 01:28 45.49262 -122.38179 2951 ft 196 kts 328°
2026-05-05 01:28 45.50395 -122.39139 3026 ft 186 kts 319°
2026-05-05 01:28 45.51183 -122.40585 2885 ft 185 kts 297°
2026-05-05 01:29 45.51700 -122.42234 2590 ft 181 kts 291°
2026-05-05 01:29 45.52290 -122.43824 2312 ft 180 kts 300°
2026-05-05 01:29 45.52958 -122.45298 2068 ft 172 kts 300°
2026-05-05 01:29 45.53514 -122.46731 1827 ft 158 kts 296°
2026-05-05 01:30 45.54037 -122.48037 1622 ft 148 kts 296°
2026-05-05 01:30 45.54540 -122.49304 1432 ft 142 kts 297°
2026-05-05 01:30 45.55011 -122.50530 1261 ft 143 kts 295°
2026-05-05 01:30 45.55497 -122.51818 1132 ft 151 kts 295°
2026-05-05 01:31 45.55990 -122.53163 937 ft 155 kts 297°
2026-05-05 01:31 45.56522 -122.54495 686 ft 153 kts 298°
2026-05-05 01:31 45.57070 -122.55826 461 ft 157 kts 297°
2026-05-05 01:31 45.57594 -122.57191 254 ft 158 kts 296°
2026-05-05 01:32 45.58119 -122.58538 46 ft 152 kts 296°
2026-05-05 01:32 45.58549 -122.59660 30 ft 84 kts 299°
2026-05-05 01:32 45.58698 -122.60036 29 ft 24 kts 303°
2026-05-05 01:32 45.58799 -122.60167 27 ft 12 kts 323°
2026-05-05 01:33 45.58884 -122.60218 27 ft 13 kts 345°
2026-05-05 01:33 45.58988 -122.60183 25 ft 17 kts 26°
2026-05-05 01:33 45.59057 -122.60130 23 ft 19 kts 30°
2026-05-05 01:33 45.59135 -122.59981 25 ft 16 kts 78°
2026-05-05 01:34 45.59201 -122.59858 27 ft 19 kts 32°
2026-05-05 01:34 45.59302 -122.59745 25 ft 12 kts 67°
2026-05-05 01:34 45.59297 -122.59641 26 ft 8 kts 113°
2026-05-05 01:34 45.59291 -122.59631 25 ft 1 kts 149°
2026-05-05 01:35 45.59274 -122.59632 23 ft 6 kts 187°
2026-05-05 01:35 45.59220 -122.59642 25 ft 6 kts 197°
2026-05-05 01:35 45.59212 -122.59646 24 ft 0 kts 197°